New Cumberland, PA

2:02 PM EST on February 08, 2016 (GMT -0500)
Capital City

Weather History for KCXY - October, 2012

Change the Weather History Date:

Wednesday, October 10, 2012

  Actual Average Record
Temperature  
Mean Temperature 57 °F -  
Max Temperature 66 °F 64 °F 89 °F (1939)
Min Temperature 48 °F 45 °F 30 °F (1895)
Degree Days  
Heating Degree Days 8    
Growing Degree Days 7 (Base 50)    
Moisture  
Dew Point 48 °F    
Average Humidity 79    
Maximum Humidity 97    
Minimum Humidity 47    
Precipitation  
Precipitation 0.02 in - - ()
Sea Level Pressure  
Sea Level Pressure 29.99 in    
Wind  
Wind Speed 4 mph (West)    
Max Wind Speed 18 mph    
Max Gust Speed 24 mph    
Visibility 6 miles    
Events Rain    
Averages and records for this station are not official NWS values.
T = Trace of Precipitation, MM = Missing Value Source: NWS Daily Summary

Daily Weather History Graph

Daily Weather History Graph

Search for Another Location

Airport or City:

Trip Planner

Search our weather history database for the weather conditions in past years. The results will help you decide how hot, cold, wet, or windy it might be!

Date:

Astronomy

Oct. 10, 2012 Rise Set
Actual Time 7:13 AM EDT 6:34 PM EDT
Civil Twilight 6:46 AM EDT 7:01 PM EDT
Nautical Twilight 6:14 AM EDT 7:33 PM EDT
Astronomical Twilight 5:43 AM EDT 8:04 PM EDT
Moon 1:47 AM EDT (10/10) 3:36 PM EDT (10/10)
Length of Visible Light 12h 15m
Length of Day
11h 21m
Waning Crescent, 27% of the Moon is Illuminated
Oct 10
Waning Crescent
Oct 15
New
Oct 21
First Quarter
Oct 29
Full
Nov 6
Last Quarter

Hourly Weather History & Observations

Time (EDT) Temp. Dew Point Humidity Pressure Visibility Wind Dir Wind Speed Gust Speed Precip Events Conditions
12:36 AM 53.6 °F 51.8 °F 94% 30.06 in 2.5 mi ESE 4.6 mph - 0.01 in Rain Light Rain
12:47 AM 53.6 °F 51.8 °F 94% 30.06 in 2.0 mi Calm Calm - 0.01 in Rain Light Rain
12:56 AM 53.1 °F 52.0 °F 96% 30.06 in 2.5 mi Calm Calm - 0.01 in Rain Light Rain
1:09 AM 53.6 °F 51.8 °F 94% 30.06 in 3.0 mi Calm Calm - 0.01 in   Overcast
1:22 AM 53.6 °F 51.8 °F 94% 30.06 in 2.5 mi Calm Calm - 0.01 in   Overcast
1:39 AM 53.6 °F 51.8 °F 94% 30.05 in 3.0 mi Calm Calm - 0.01 in   Overcast
1:56 AM 53.1 °F 52.0 °F 96% 30.05 in 3.0 mi Calm Calm - 0.01 in   Overcast
2:56 AM 53.1 °F 52.0 °F 96% 30.03 in 4.0 mi Calm Calm - N/A   Overcast
3:56 AM 54.0 °F 52.0 °F 93% 30.01 in 4.0 mi SE 3.5 mph - N/A   Overcast
4:56 AM 54.0 °F 52.0 °F 93% 29.99 in 5.0 mi Calm Calm - N/A   Overcast
5:56 AM 54.0 °F 53.1 °F 97% 30.00 in 4.0 mi Calm Calm - N/A   Overcast
6:47 AM 53.6 °F 51.8 °F 94% 29.99 in 2.5 mi West 4.6 mph - N/A   Overcast
6:56 AM 53.1 °F 52.0 °F 96% 29.99 in 1.8 mi West 3.5 mph - N/A   Overcast
7:33 AM 53.6 °F 51.8 °F 94% 29.98 in 1.0 mi West 3.5 mph - N/A   Overcast
7:56 AM 53.1 °F 52.0 °F 96% 29.99 in 1.2 mi West 3.5 mph - N/A   Overcast
8:03 AM 53.6 °F 51.8 °F 94% 29.99 in 1.8 mi West 3.5 mph - N/A   Overcast
8:09 AM 53.6 °F 51.8 °F 94% 29.99 in 2.0 mi West 3.5 mph - N/A   Overcast
8:50 AM 53.6 °F 51.8 °F 94% 29.99 in 3.0 mi West 5.8 mph - N/A   Overcast
8:56 AM 54.0 °F 52.0 °F 93% 29.99 in 3.0 mi West 5.8 mph - N/A   Overcast
9:04 AM 53.6 °F 51.8 °F 94% 29.99 in 4.0 mi West 6.9 mph - N/A   Overcast
9:56 AM 55.9 °F 51.1 °F 84% 29.98 in 6.0 mi West 4.6 mph - N/A   Haze
10:56 AM 59.0 °F 50.0 °F 72% 29.96 in 9.0 mi West 6.9 mph - N/A   Partly Cloudy
11:56 AM 61.0 °F 46.0 °F 58% 29.95 in 10.0 mi WSW 9.2 mph - N/A   Mostly Cloudy
12:56 PM 61.0 °F 45.0 °F 56% 29.93 in 10.0 mi WNW 5.8 mph - N/A   Overcast
1:56 PM 61.0 °F 44.1 °F 54% 29.89 in 10.0 mi WSW 6.9 mph - N/A   Overcast
2:56 PM 64.9 °F 44.1 °F 47% 29.87 in 10.0 mi West 9.2 mph 19.6 mph N/A   Scattered Clouds
3:56 PM 66.0 °F 45.0 °F 47% 29.85 in 10.0 mi West 12.7 mph 20.7 mph N/A   Mostly Cloudy
4:56 PM 64.0 °F 46.0 °F 52% 29.85 in 10.0 mi West 5.8 mph - N/A   Overcast
5:56 PM 62.1 °F 45.0 °F 53% 29.89 in 10.0 mi NW 18.4 mph 24.2 mph N/A   Overcast
6:56 PM 59.0 °F 44.1 °F 58% 29.94 in 10.0 mi WNW 11.5 mph 24.2 mph N/A   Overcast
7:56 PM 55.0 °F 42.1 °F 62% 29.97 in 10.0 mi West 10.4 mph - N/A   Clear
8:56 PM 54.0 °F 37.0 °F 53% 30.00 in 10.0 mi West 10.4 mph 19.6 mph N/A   Clear
9:56 PM 52.0 °F 37.9 °F 59% 30.04 in 10.0 mi West 9.2 mph - N/A   Clear
10:56 PM 48.9 °F 37.0 °F 64% 30.06 in 10.0 mi West 8.1 mph - N/A   Clear
11:56 PM 48.0 °F 37.0 °F 66% 30.07 in 10.0 mi West 8.1 mph - N/A   Clear